Simultaneous Nadir Overpasses (SNOs) Predictions

Prediction of SNOs between METOP-A and TERRA Satellite Orbit:

Table of predicted SNOs for the next 14.0 days since TLE Epoch: 5/31/2019
Index Date (METOP-A) Time (METOP-A) Lat,Lon (METOP-A) SZA (METOP-A ) Date (TERRA) Time (TERRA) Lat,Lon (TERRA) SZA (TERRA ) Distance(km) Time Diff (sec)
1 06/01/2019 20:46:59 81.45, -81.67 62.62 06/01/2019 20:47:34 81.45, -81.68 62.64 0.32 35
2 06/01/2019 21:37:39 -81.45, 85.96 117.35 06/01/2019 21:37:01 -81.45, 85.83 117.39 2.13 38
3 06/04/2019 16:21:23 81.45, -15.23 62.26 06/04/2019 16:21:48 81.46, -15.12 62.29 2.09 25
4 06/04/2019 17:12:03 -81.45, 152.40 117.71 06/04/2019 17:11:15 -81.45, 152.43 117.73 0.83 48
5 06/07/2019 11:55:47 81.45, 51.18 61.95 06/07/2019 11:56:03 81.44, 51.02 61.94 2.79 16
6 06/07/2019 12:46:27 -81.45,-141.17 118.02 06/07/2019 12:45:29 -81.46,-141.00 118.02 3.04 58
7 06/10/2019 07:30:10 81.45, 117.58 61.70 06/10/2019 07:30:16 81.45, 117.51 61.69 1.28 6
8 06/10/2019 08:20:50 -81.45, -74.76 118.28 06/10/2019 08:19:43 -81.45, -74.87 118.32 1.93 67
9 06/13/2019 02:13:54 -81.45, 16.33 118.55 06/13/2019 02:15:04 -81.45, 16.31 118.52 0.79 70




NCC Satellite Simultaneous Nadir Overpasses (SNOs) Prediction Service
